"2010-07-18 00:00:00",9155,14.71,48.93,1.584,0.355,24.89,111.8323,29.61,30.52,15.91,0,111.5,13.05,30.46,10.9
"2010-07-18 00:00:30",9156,14.78,47.68,1.905,0.454,24.86,111.8332,29.61,30.52,15.53,0,111.5,13.05,30.46,9.7
"2010-07-18 00:01:00",9157,14.77,48.02,1.204,0.313,24.94,111.8345,29.61,30.51,15.34,0,111.5,13.05,30.47,10.0
"2010-07-18 00:01:30",9158,15.05,49.92,1.035,0.226,24.92,111.8341,29.61,30.52,14.85,0,111.5,13.05,30.47,11.9
"2010-07-18 00:02:00",9159,15.32,51.23,0.81,0.54,24.94,111.8345,29.61,30.51,15.04,0,111.5,13.05,30.47,13.2
"2010-07-18 00:02:30",9160,15.65,49.81,1.308,0.292,24.92,111.8341,29.61,30.51,14.63,0,111.5,13.05,30.47,11.8
"2010-07-18 00:03:00",9161,15.72,49.68,0.653,0.344,24.97,111.8347,29.61,30.52,14.39,0,111.5,13.06,30.47,11.7
"2010-07-18 00:03:30",9162,15.56,50.53,1.178,0.19,24.91,111.839,29.62,30.53,14.84,0,111.5,13.06,30.48,12.5
"2010-07-18 00:04:00",9163,15.72,51.44,0.846,0.232,24.96,111.8418,29.63,30.52,14.64,0,111.5,13.06,30.49,13.4
"2010-07-18 00:04:30",9164,16.08,51.99,0.829,0.297,24.93,111.8423,29.63,30.53,14.54,0,111.5,13.06,30.49,14.0
"2010-07-18 00:05:00",9165,15.67,51,2.443,0.202,24.88,111.8429,29.63,30.54,14.89,0,111.5,13.06,30.49,13.0
"2010-07-18 00:05:30",9166,15.92,52.36,0.97,0.18,24.94,111.8423,29.63,30.54,14.99,0,111.5,13.06,30.49,14.4
"2010-07-18 00:06:00",9167,15.93,51.98,0.796,0.13,24.93,111.8415,29.63,30.53,14.59,0,111.5,13.06,30.48,14.0
"2010-07-18 00:06:30",9168,15.72,51.51,0.514,0.14,24.93,111.8429,29.63,30.54,14.58,0,111.5,13.06,30.49,13.5
"2010-07-18 00:07:00",9169,15.95,52.62,0.724,0.372,24.91,111.842,29.63,30.55,15.12,0,111.5,13.06,30.49,14.6
"2010-07-18 00:07:30",9170,15.77,51.16,1.403,0.211,24.89,111.8406,29.63,30.54,15.17,0,111.5,13.06,30.48,13.2
"2010-07-18 00:08:00",9171,15.82,52.27,0.704,0.286,24.88,111.8415,29.63,30.54,15.02,0,111.5,13.06,30.48,14.3
"2010-07-18 00:08:30",9172,15.58,50.94,1.425,0.411,24.8,111.8392,29.62,30.55,15.33,0,111.5,13.06,30.48,12.9
"2010-07-18 00:09:00",9173,15.73,50.45,0.692,0.261,24.83,111.8415,29.63,30.55,15.11,0,111.5,13.06,30.48,12.5
"2010-07-18 00:09:30",9174,16.14,49.07,0.611,0.28,24.86,111.8438,29.64,30.55,14.67,0,111.5,13.06,30.49,11.1
"2010-07-18 00:10:00",9175,16.2,49.63,0.653,0.148,24.85,111.8432,29.63,30.54,14.59,0,111.5,13.06,30.49,11.6
"2010-07-18 00:10:30",9176,16.32,50.59,0.744,0.196,24.84,111.8448,29.64,30.57,14.84,0,111.5,13.06,30.49,12.6
"2010-07-18 00:11:00",9177,15.91,47.94,2.812,0.766,24.81,111.8457,29.64,30.56,15.3,0,111.5,13.06,30.50,9.9
"2010-07-18 00:11:30",9178,14.93,49.4,1.493,0.532,24.71,111.846,29.64,30.56,15.82,0,111.5,13.06,30.50,11.4
"2010-07-18 00:12:00",9179,15.2,49.09,1.61,0.478,24.67,111.846,29.64,30.56,16.42,0,111.5,13.06,30.50,11.1
"2010-07-18 00:12:30",9180,15.51,49.39,0.655,0.178,24.78,111.8428,29.63,30.57,15.57,0,111.5,13.06,30.49,11.4
"2010-07-18 00:13:00",9181,15.28,48.64,1.105,0.302,24.75,111.841,29.63,30.55,15.72,0,111.5,13.06,30.48,10.6
"2010-07-18 00:13:30",9182,15.34,48.15,1.348,0.263,24.72,111.8414,29.63,30.55,16.02,0,111.5,13.05,30.48,10.2
"2010-07-18 00:14:00",9183,14.85,48.08,1.833,0.576,24.71,111.8405,29.63,30.54,16.17,0,111.5,13.05,30.48,10.1
"2010-07-18 00:14:30",9184,15.02,46.72,1.493,0.382,24.75,111.8406,29.63,30.55,16.27,0,111.5,13.05,30.48,8.7
"2010-07-18 00:15:00",9185,14.65,47.99,1.24,0.359,24.77,111.8331,29.61,30.54,16.14,0,111.5,13.05,30.46,10.0
"2010-07-18 00:15:30",9186,14.25,46.6,1.759,0.483,24.68,111.8188,29.57,30.51,16.82,0,111.4,13.05,30.43,8.6
"2010-07-18 00:16:00",9187,14.5,49.47,1.185,0.782,24.95,111.8105,29.55,30.52,16.57,0,111.4,13.05,30.40,11.5
"2010-07-18 00:16:30",9188,14.82,49.25,0.906,0.182,24.99,111.8096,29.55,30.49,16.4,0,111.5,13.05,30.40,11.2
"2010-07-18 00:17:00",9189,14.93,48.7,0.866,0.269,25.01,111.7959,29.51,30.46,16.46,0,111.5,13.05,30.37,10.7
"2010-07-18 00:17:30",9190,14.64,48.09,0.792,0.616,24.96,111.785,29.48,30.47,16.64,0,111.5,13.05,30.34,10.1
"2010-07-18 00:18:00",9191,14.53,48.45,1.003,0.489,24.99,111.7766,29.46,30.43,16.79,0,111.5,13.05,30.32,10.5
"2010-07-18 00:18:30",9192,14.62,48.45,1.865,0.438,25.01,111.7741,29.46,30.43,17.16,0,111.5,13.05,30.31,10.5
"2010-07-18 00:19:00",9193,15,47.99,1.016,0.152,25.12,111.753,29.4,30.39,16.39,0,111.5,13.06,30.26,10.0
"2010-07-18 00:19:30",9194,14.81,48.32,1.216,0.427,25.08,111.7438,29.38,30.36,16.38,0,111.4,13.06,30.23,10.3
"2010-07-18 00:20:00",9195,14.95,48.36,1.395,0.281,25.08,111.7418,29.37,30.35,16.3,0,111.4,13.06,30.23,10.4
"2010-07-18 00:20:30",9196,14.55,46.74,1.234,0.307,24.93,111.7289,29.34,30.33,17.25,0,111.5,13.06,30.19,8.7
"2010-07-18 00:21:00",9197,15.2,47.8,1.126,0.144,25.08,111.7169,29.31,30.3,16.63,0,111.5,13.06,30.16,9.8
"2010-07-18 00:21:30",9198,14.93,46.5,0.943,0.242,25.09,111.7105,29.29,30.28,16.37,0,111.4,13.06,30.15,8.5
"2010-07-18 00:22:00",9199,15.29,47.48,0.533,0.156,25.2,111.7052,29.28,30.26,16.02,0,111.4,13.06,30.13,9.5
"2010-07-18 00:22:30",9200,15.23,48.14,0.641,0.219,25.11,111.6885,29.24,30.25,16.16,0,111.4,13.06,30.09,10.1
"2010-07-18 00:23:00",9201,15.15,47.77,1.208,0.472,25.07,111.6818,29.22,30.24,16.6,0,111.4,13.06,30.07,9.8
"2010-07-18 00:23:30",9202,15.46,47.63,0.895,0.169,25.15,111.6769,29.21,30.2,16.31,0,111.4,13.06,30.06,9.6
"2010-07-18 00:24:00",9203,14.86,47.67,0.795,0.307,25.14,111.6747,29.2,30.19,16.16,0,111.4,13.06,30.05,9.7
"2010-07-18 00:24:30",9204,14.68,49.2,0.449,0.172,25.14,111.66,29.16,30.17,16.19,0,111.4,13.06,30.02,11.2
"2010-07-18 00:25:00",9205,14.26,48.8,1.323,0.526,24.97,111.6515,29.14,30.14,17.03,0,111.4,13.06,29.99,10.8
"2010-07-18 00:25:30",9206,14.23,48.84,1.431,0.306,25.09,111.6448,29.12,30.12,17.01,0,111.4,13.06,29.98,10.8
"2010-07-18 00:26:00",9207,14.59,48.69,1.596,0.344,25,111.6375,29.1,30.09,17.05,0,111.4,13.07,29.96,10.7
"2010-07-18 00:26:30",9208,14.37,48.66,1.975,0.475,24.95,111.6267,29.08,30.08,17.45,0,111.4,13.07,29.93,10.7
"2010-07-18 00:27:00",9209,14.56,49.47,2.254,0.54,24.99,111.6187,29.06,30.06,17.45,0,111.4,13.07,29.91,11.5
"2010-07-18 00:27:30",9210,14.94,50.08,1.78,0.369,25.04,111.6137,29.04,30.05,16.89,0,111.4,13.07,29.90,12.1
"2010-07-18 00:28:00",9211,15.18,49.2,1.747,0.424,25.03,111.611,29.04,30.03,16.57,0,111.4,13.07,29.89,11.2
"2010-07-18 00:28:30",9212,15.14,49.73,0.582,0.158,25.09,111.6029,29.02,30,16.18,0,111.4,13.07,29.87,11.7
"2010-07-18 00:29:00",9213,15.35,50.72,0.788,0.37,25.09,111.5999,29.01,29.99,16.25,0,111.4,13.07,29.86,12.7
"2010-07-18 00:29:30",9214,15.01,51.1,0.837,0.174,25.1,111.6027,29.02,29.98,16.36,0,111.4,13.07,29.87,13.1
"2010-07-18 00:30:00",9215,14.35,49.43,2.624,0.411,24.97,111.6007,29.01,29.97,17.39,0,111.4,13.07,29.86,11.4
"2010-07-18 00:30:30",9216,14.47,51.18,0.966,0.287,24.99,111.601,29.01,29.95,17.23,0,111.4,13.07,29.86,13.2
"2010-07-18 00:31:00",9217,14.48,51.26,2.635,0.291,25.03,111.5943,28.99,29.94,17.38,0,111.4,13.06,29.85,13.3
"2010-07-18 00:31:30",9218,14.27,48.7,1.442,0.418,25,111.5852,28.97,29.92,17.68,0,111.4,13.06,29.82,10.7
"2010-07-18 00:32:00",9219,13.98,51.96,1.793,0.405,24.95,111.5757,28.95,29.91,18.15,0,111.4,13.06,29.80,14.0
"2010-07-18 00:32:30",9220,14.62,51.13,1.788,0.549,25.04,111.5692,28.93,29.88,17.62,0,111.4,13.06,29.78,13.1
"2010-07-18 00:33:00",9221,14.47,51.2,1.676,0.389,24.93,111.5692,28.93,29.88,17.84,0,111.4,13.06,29.78,13.2
"2010-07-18 00:33:30",9222,14.07,53.37,1.484,0.239,24.93,111.5591,28.9,29.87,17.5,0,111.4,13.06,29.76,15.4
"2010-07-18 00:34:00",9223,13.84,53.43,1.474,0.534,24.89,111.5442,28.86,29.84,17.69,0,111.4,13.06,29.72,15.4
"2010-07-18 00:34:30",9224,14.15,54.82,1.091,0.157,24.95,111.5381,28.85,29.84,17.86,0,111.4,13.06,29.70,16.8
"2010-07-18 00:35:00",9225,13.94,51.87,1.108,0.314,24.84,111.5356,28.84,29.8,18.04,0,111.4,13.06,29.69,13.9
"2010-07-18 00:35:30",9226,13.77,53.15,1.199,0.277,24.96,111.5313,28.83,29.79,17.92,0,111.4,13.06,29.68,15.2
"2010-07-18 00:36:00",9227,13.42,53.9,1.384,0.319,24.91,111.5242,28.81,29.76,18.02,0,111.4,13.07,29.67,15.9
"2010-07-18 00:36:30",9228,14.34,52.93,1.859,0.711,24.94,111.5141,28.79,29.75,17.69,0,111.4,13.07,29.64,14.9
"2010-07-18 00:37:00",9229,14.46,52.92,1.585,0.34,24.93,111.5075,28.77,29.73,17.35,0,111.4,13.07,29.62,14.9
"2010-07-18 00:37:30",9230,14.68,52.12,1.082,0.177,25,111.5094,28.78,29.71,17.67,0,111.4,13.07,29.63,14.1
"2010-07-18 00:38:00",9231,14.49,52.67,1.744,0.29,24.98,111.5107,28.78,29.71,17.62,0,111.4,13.07,29.63,14.7
"2010-07-18 00:38:30",9232,14.59,53.54,1.185,0.513,24.93,111.5058,28.77,29.69,17.58,0,111.4,13.07,29.62,15.5
"2010-07-18 00:39:00",9233,14.9,53.93,1.537,0.448,25.01,111.4944,28.74,29.68,17.26,0,111.4,13.07,29.59,15.9
"2010-07-18 00:39:30",9234,13.88,55.16,0.711,0.326,24.99,111.486,28.71,29.68,17.53,0,111.4,13.07,29.57,17.2
"2010-07-18 00:40:00",9235,14.07,54.57,1.043,0.365,24.9,111.4832,28.71,29.66,17.69,0,111.4,13.07,29.56,16.6
"2010-07-18 00:40:30",9236,13.94,55.46,1.725,0.2,24.89,111.4776,28.69,29.65,18.08,0,111.4,13.08,29.55,17.5
"2010-07-18 00:41:00",9237,13.87,54.85,1.083,0.326,24.93,111.4776,28.69,29.62,18.2,0,111.4,13.08,29.55,16.8
"2010-07-18 00:41:30",9238,14.08,54.69,1.121,0.363,24.92,111.4709,28.68,29.62,18.44,0,111.4,13.08,29.53,16.7
"2010-07-18 00:42:00",9239,14.11,54.03,1.171,0.257,24.89,111.4552,28.64,29.6,18.24,0,111.4,13.08,29.49,16.0
"2010-07-18 00:42:30",9240,14,54.42,1.21,0.241,24.9,111.4524,28.63,29.58,17.96,0,111.4,13.08,29.48,16.4
"2010-07-18 00:43:00",9241,14.44,53.88,1.383,0.254,24.88,111.4454,28.61,29.58,17.83,0,111.4,13.08,29.46,15.9
"2010-07-18 00:43:30",9242,13.71,55.04,1.25,0.258,24.9,111.444,28.61,29.56,17.92,0,111.4,13.08,29.46,17.0
"2010-07-18 00:44:00",9243,13.63,54.14,1.112,0.35,24.81,111.444,28.61,29.55,18.24,0,111.4,13.08,29.46,16.1
"2010-07-18 00:44:30",9244,13.87,55.99,1.255,0.283,24.9,111.444,28.61,29.53,18.11,0,111.4,13.08,29.46,18.0
"2010-07-18 00:45:00",9245,13.46,54.31,0.697,0.187,24.82,111.442,28.6,29.54,17.76,0,111.4,13.08,29.45,16.3
"2010-07-18 00:45:30",9246,13.62,55.34,1.404,0.621,24.73,111.4395,28.6,29.53,18.3,0,111.4,13.08,29.45,17.3
"2010-07-18 00:46:00",9247,13.42,54.9,1.726,0.365,24.65,111.4302,28.57,29.52,18.53,0,111.4,13.08,29.42,16.9
"2010-07-18 00:46:30",9248,13.55,53.12,0.711,0.425,24.59,111.4201,28.55,29.5,18.36,0,111.4,13.08,29.40,15.1
"2010-07-18 00:47:00",9249,13.73,51.51,1.21,0.38,24.54,111.4187,28.54,29.49,18.82,0,111.4,13.08,29.39,13.5
"2010-07-18 00:47:30",9250,13.19,52.16,1.795,0.343,24.64,111.4173,28.54,29.5,19.06,0,111.4,13.08,29.39,14.2
"2010-07-18 00:48:00",9251,12.91,53.54,2.532,0.225,24.68,111.4106,28.52,29.49,19.2,0,111.4,13.08,29.37,15.5
"2010-07-18 00:48:30",9252,13.08,53.8,1.032,0.29,24.72,111.4103,28.52,29.49,19.21,0,111.4,13.08,29.37,15.8
"2010-07-18 00:49:00",9253,12.59,56.16,2.065,0.27,24.71,111.3966,28.48,29.47,19.24,0,111.4,13.07,29.34,18.2
"2010-07-18 00:49:30",9254,12.69,54.22,1.419,0.353,24.77,111.3806,28.44,29.45,19.14,0,111.4,13.07,29.29,16.2
"2010-07-18 00:50:00",9255,12.43,55.35,1.509,0.439,24.74,111.3764,28.43,29.42,19.13,0,111.3,13.07,29.28,17.3
"2010-07-18 00:50:30",9256,11.78,54.21,1.912,0.248,24.69,111.3708,28.42,29.4,19.56,0,111.3,13.07,29.27,16.2
"2010-07-18 00:51:00",9257,11.97,55.55,2.363,0.41,24.71,111.3551,28.38,29.37,19.41,0,111.3,13.07,29.23,17.5
"2010-07-18 00:51:30",9258,12.42,53.45,2.791,0.479,24.71,111.3461,28.36,29.36,19.56,0,111.4,13.07,29.21,15.5
"2010-07-18 00:52:00",9259,12.76,56.07,2.311,0.451,24.7,111.3474,28.36,29.34,19.69,0,111.4,13.07,29.21,18.1
"2010-07-18 00:52:30",9260,12.65,52.15,1.952,0.283,24.72,111.3337,28.32,29.3,19.62,0,111.4,13.07,29.17,14.2
"2010-07-18 00:53:00",9261,11.59,56.09,3.017,0.763,24.66,111.3254,28.3,29.29,19.81,0,111.4,13.08,29.15,18.1
"2010-07-18 00:53:30",9262,11.23,54.53,3.295,0.762,24.64,111.3221,28.29,29.27,19.89,0,111.3,13.08,29.14,16.5
"2010-07-18 00:54:00",9263,11.81,56.61,3.47,0.365,24.67,111.3165,28.28,29.25,19.78,0,111.3,13.08,29.13,18.6
"2010-07-18 00:54:30",9264,11.84,53.62,1.783,0.556,24.65,111.3001,28.24,29.22,20.06,0,111.3,13.08,29.09,15.6
"2010-07-18 00:55:00",9265,11.65,54.82,1.587,0.572,24.64,111.2963,28.23,29.2,20.11,0,111.3,13.08,29.08,16.8
"2010-07-18 00:55:30",9266,12.32,57.48,1.531,0.547,24.65,111.2967,28.23,29.18,20.12,0,111.3,13.08,29.08,19.5
"2010-07-18 00:56:00",9267,12.69,58.8,1.124,0.322,24.66,111.2838,28.19,29.16,19.94,0,111.3,13.08,29.05,20.8
"2010-07-18 00:56:30",9268,12.55,58.19,2.223,0.43,24.65,111.2721,28.16,29.12,20.07,0,111.3,13.08,29.01,20.2
"2010-07-18 00:57:00",9269,11.87,56.11,1.423,0.349,24.7,111.2692,28.16,29.11,19.37,0,111.3,13.08,29.01,18.1
"2010-07-18 00:57:30",9270,11.47,55.08,1.857,0.35,24.6,111.2681,28.15,29.09,20.09,0,111.3,13.08,29.00,17.1
"2010-07-18 00:58:00",9271,12.81,56.61,1.533,0.981,24.66,111.2569,28.13,29.07,19.76,0,111.4,13.08,28.98,18.6
"2010-07-18 00:58:30",9272,13.6,55.61,1.698,0.279,24.69,111.2457,28.1,29.06,19.43,0,111.3,13.08,28.95,17.6
"2010-07-18 00:59:00",9273,13.68,58.81,2.407,0.671,24.65,111.2443,28.09,29.05,19.34,0,111.3,13.08,28.94,20.8
"2010-07-18 00:59:30",9274,13.33,56.85,2.172,0.5,24.61,111.2387,28.08,29.03,19.52,0,111.3,13.08,28.93,18.8
"2010-07-18 01:00:00",9275,13.98,56.18,2.013,0.26,24.63,111.2364,28.07,29.03,19.4,0,111.3,13.08,28.92,18.2
"2010-07-18 01:00:30",9276,14.55,54.05,1.276,0.521,24.72,111.2364,28.07,29,19.15,0,111.3,13.09,28.92,16.0
"2010-07-18 01:01:00",9277,14.17,56.94,1.473,0.442,24.66,111.237,28.07,28.99,19.07,0,111.3,13.09,28.92,18.9
"2010-07-18 01:01:30",9278,14.24,57.05,1.281,0.342,24.63,111.2364,28.07,28.98,19.27,0,111.3,13.09,28.92,19.0
"2010-07-18 01:02:00",9279,14.95,54.99,1.758,0.289,24.64,111.2374,28.08,28.98,19.3,0,111.3,13.09,28.93,17.0
"2010-07-18 01:02:30",9280,14.53,56.57,2.908,0.428,24.62,111.2373,28.08,28.98,19.52,0,111.3,13.09,28.93,18.6
"2010-07-18 01:03:00",9281,13.75,57.02,3.065,0.64,24.55,111.2275,28.05,28.96,19.78,0,111.3,13.09,28.90,19.0
"2010-07-18 01:03:30",9282,14.45,55.29,2.391,0.515,24.55,111.2171,28.02,28.96,19.78,0,111.3,13.09,28.87,17.3
"2010-07-18 01:04:00",9283,14.36,57.33,0.901,0.431,24.54,111.2114,28.01,28.94,19.91,0,111.3,13.09,28.86,19.3
"2010-07-18 01:04:30",9284,14.64,56.78,1.515,0.388,24.57,111.2106,28.01,28.93,19.8,0,111.3,13.09,28.86,18.8
"2010-07-18 01:05:00",9285,14.62,54.82,2.036,0.507,24.56,111.2056,27.99,28.9,19.8,0,111.3,13.08,28.84,16.8
"2010-07-18 01:05:30",9286,14.4,56.69,2.404,0.417,24.55,111.1908,27.96,28.89,19.55,0,111.3,13.08,28.81,18.7
"2010-07-18 01:06:00",9287,15.07,57.51,2.646,0.558,24.54,111.1863,27.94,28.88,19.63,0,111.3,13.08,28.79,19.5
"2010-07-18 01:06:30",9288,16.23,56.09,1.547,0.338,24.55,111.1785,27.92,28.88,19.37,0,111.3,13.08,28.77,18.1
"2010-07-18 01:07:00",9289,16.21,56.68,1.106,0.336,24.59,111.1782,27.92,28.86,19.3,0,111.3,13.08,28.77,18.7
"2010-07-18 01:07:30",9290,15.83,57.54,1.319,0.366,24.56,111.1765,27.92,28.84,19.38,0,111.3,13.08,28.77,19.5
"2010-07-18 01:08:00",9291,15.75,58.51,1.533,0.276,24.64,111.1653,27.89,28.83,19.46,0,111.3,13.08,28.74,20.5
"2010-07-18 01:08:30",9292,15.44,58.79,1.148,0.338,24.62,111.1627,27.88,28.82,19.58,0,111.3,13.08,28.73,20.8
"2010-07-18 01:09:00",9293,15.11,58.22,1.314,0.289,24.55,111.1568,27.87,28.8,19.76,0,111.3,13.08,28.72,20.2
"2010-07-18 01:09:30",9294,14.77,58.73,0.839,0.116,24.57,111.1532,27.86,28.8,19.68,0,111.3,13.08,28.71,20.7
"2010-07-18 01:10:00",9295,14.83,60.67,1.413,0.374,24.53,111.1521,27.86,28.79,19.82,0,111.3,13.09,28.71,22.7
"2010-07-18 01:10:30",9296,14.6,59.8,0.838,0.32,24.6,111.1456,27.84,28.77,20,0,111.3,13.09,28.69,21.8
"2010-07-18 01:11:00",9297,14.73,59.92,0.673,0.496,24.58,111.1448,27.84,28.78,19.96,0,111.3,13.09,28.69,21.9
"2010-07-18 01:11:30",9298,14.68,59.35,1.163,0.198,24.57,111.1445,27.84,28.77,20.03,0,111.3,13.09,28.69,21.3
"2010-07-18 01:12:00",9299,14.3,58.75,0.549,0.258,24.58,111.1425,27.83,28.75,19.94,0,111.3,13.09,28.68,20.8
"2010-07-18 01:12:30",9300,14.34,59.38,0.647,0.131,24.55,111.1372,27.82,28.75,19.81,0,111.3,13.09,28.67,21.4
"2010-07-18 01:13:00",9301,14.37,59.66,0.764,0.147,24.55,111.1313,27.8,28.74,19.9,0,111.3,13.09,28.65,21.7
"2010-07-18 01:13:30",9302,15.04,59.14,0.57,0.241,24.55,111.1206,27.78,28.73,19.68,0,111.3,13.09,28.62,21.1
"2010-07-18 01:14:00",9303,14.89,59.07,0.343,0.087,24.55,111.1198,27.77,28.71,19.56,0,111.3,13.09,28.62,21.1
"2010-07-18 01:14:30",9304,15.22,59.64,0.469,0.151,24.55,111.1184,27.77,28.71,19.35,0,111.3,13.09,28.62,21.6
"2010-07-18 01:15:00",9305,15.4,59.83,0.575,0.245,24.57,111.1173,27.77,28.7,19.15,0,111.3,13.09,28.62,21.8
"2010-07-18 01:15:30",9306,15.59,58.72,0.64,0.171,24.52,111.1184,27.77,28.7,18.81,0,111.3,13.09,28.62,20.7
"2010-07-18 01:16:00",9307,15.22,58.27,0.747,0.162,24.44,111.1126,27.75,28.71,19.13,0,111.3,13.09,28.60,20.3
"2010-07-18 01:16:30",9308,15.4,58.43,0.653,0.183,24.45,111.1117,27.75,28.69,19.36,0,111.3,13.09,28.60,20.4
"2010-07-18 01:17:00",9309,15.56,59.09,0.618,0.169,24.44,111.1131,27.76,28.69,19.62,0,111.3,13.09,28.60,21.1
"2010-07-18 01:17:30",9310,15.81,59.61,0.755,0.215,24.43,111.1161,27.76,28.68,19.45,0,111.3,13.1,28.61,21.6
"2010-07-18 01:18:00",9311,15.91,60.09,0.751,0.224,24.45,111.1124,27.75,28.66,18.76,0,111.3,13.09,28.60,22.1
"2010-07-18 01:18:30",9312,15.16,59.56,1.213,0.477,24.38,111.1044,27.73,28.65,18.82,0,111.3,13.1,28.58,21.6
"2010-07-18 01:19:00",9313,16.09,59.5,0.9,0.433,24.44,111.0993,27.72,28.63,18.44,0,111.3,13.1,28.57,21.5
"2010-07-18 01:19:30",9314,16.1,59.51,0.495,0.174,24.44,111.1021,27.73,28.63,17.99,0,111.3,13.09,28.58,21.5
"2010-07-18 01:20:00",9315,16.03,59.63,0.448,0.101,24.48,111.0984,27.72,28.63,17.83,0,111.3,13.1,28.57,21.6
"2010-07-18 01:20:30",9316,15.86,59.43,0.638,0.14,24.46,111.0997,27.72,28.62,17.76,0,111.3,13.1,28.57,21.4
"2010-07-18 01:21:00",9317,15.72,59.45,0.502,0.097,24.38,111.0981,27.72,28.62,17.97,0,111.3,13.1,28.57,21.5
"2010-07-18 01:21:30",9318,15.72,59.96,0.37,0.095,24.4,111.0973,27.72,28.61,17.82,0,111.3,13.1,28.56,22.0
"2010-07-18 01:22:00",9319,15.65,59.57,0.547,0.093,24.37,111.0977,27.72,28.63,17.8,0,111.3,13.09,28.56,21.6
"2010-07-18 01:22:30",9320,15.71,59.7,0.426,0.146,24.36,111.0986,27.72,28.62,17.77,0,111.3,13.09,28.57,21.7
"2010-07-18 01:23:00",9321,16.05,59.63,0.721,0.34,24.32,111.1008,27.72,28.62,18,0,111.3,13.09,28.57,21.6
"2010-07-18 01:23:30",9322,16,59.26,0.611,0.185,24.33,111.103,27.73,28.6,17.93,0,111.3,13.09,28.58,21.3
"2010-07-18 01:24:00",9323,15.79,58.93,0.809,0.173,24.28,111.099,27.72,28.6,18.03,0,111.3,13.09,28.57,20.9
"2010-07-18 01:24:30",9324,15.77,58.95,0.683,0.193,24.29,111.0856,27.69,28.59,17.9,0,111.3,13.09,28.53,21.0
"2010-07-18 01:25:00",9325,15.46,58.26,0.872,0.151,24.25,111.0791,27.67,28.59,18.31,0,111.3,13.09,28.52,20.3
"2010-07-18 01:25:30",9326,15.52,59.59,0.63,0.222,24.26,111.0706,27.65,28.57,18.09,0,111.3,13.09,28.49,21.6
"2010-07-18 01:26:00",9327,15.27,59.58,0.499,0.343,24.25,111.0706,27.65,28.56,18.29,0,111.3,13.09,28.49,21.6
"2010-07-18 01:26:30",9328,15.41,60.69,0.485,0.124,24.32,111.0698,27.64,28.54,17.65,0,111.3,13.09,28.49,22.7
"2010-07-18 01:27:00",9329,15.11,59.55,0.881,0.116,24.28,111.0665,27.64,28.53,17.73,0,111.3,13.09,28.48,21.5
"2010-07-18 01:27:30",9330,15.09,60.25,0.85,0.392,24.24,111.0592,27.62,28.52,18.39,0,111.3,13.09,28.47,22.2
"2010-07-18 01:28:00",9331,15.38,60.65,1.122,0.324,24.28,111.0489,27.59,28.51,17.98,0,111.3,13.1,28.44,22.7
"2010-07-18 01:28:30",9332,15.37,61.03,0.917,0.336,24.28,111.0451,27.58,28.5,18.29,0,111.3,13.1,28.43,23.0
"2010-07-18 01:29:00",9333,15.61,61.85,0.922,0.15,24.24,111.0391,27.57,28.48,18.45,0,111.3,13.1,28.41,23.8
"2010-07-18 01:29:30",9334,15.65,63.07,0.484,0.091,24.19,111.0384,27.56,28.48,18.74,0,111.3,13.1,28.41,25.1
"2010-07-18 01:30:00",9335,15.24,63,0.874,0.13,24.19,111.0316,27.55,28.46,19.03,0,111.3,13.1,28.39,25.0
"2010-07-18 01:30:30",9336,14.91,62.11,0.187,0.15,24.19,111.0159,27.51,28.44,19,0,111.3,13.1,28.35,24.1
"2010-07-18 01:31:00",9337,15.15,62.72,0.615,0.125,24.19,111.0088,27.49,28.41,19.06,0,111.3,13.1,28.34,24.7
"2010-07-18 01:31:30",9338,15.19,62.17,0.522,0.198,24.15,111.0086,27.49,28.4,19.19,0,111.3,13.1,28.33,24.2
"2010-07-18 01:32:00",9339,15.02,61.51,1.35,0.225,24.13,110.9935,27.45,28.38,19.12,0,111.3,13.1,28.30,23.5
"2010-07-18 01:32:30",9340,15.08,61.32,0.63,0.324,24.16,110.9843,27.42,28.36,19.05,0,111.3,13.1,28.27,23.3
"2010-07-18 01:33:00",9341,15.19,60.91,0.469,0.077,24.13,110.9807,27.42,28.35,19.15,0,111.3,13.1,28.26,22.9
"2010-07-18 01:33:30",9342,15.24,60.69,1.354,0.221,24.1,110.9796,27.41,28.33,19.29,0,111.3,13.1,28.26,22.7
"2010-07-18 01:34:00",9343,15.23,61.61,0.732,0.162,24.12,110.9596,27.36,28.3,19.35,0,111.3,13.1,28.21,23.6
"2010-07-18 01:34:30",9344,15.66,60.93,0.04,0.176,24.21,110.9504,27.34,28.28,18.81,0,111.3,13.1,28.18,22.9
"2010-07-18 01:35:00",9345,16.05,60.55,0.571,0.165,24.18,110.9467,27.33,28.26,18.74,0,111.3,13.1,28.18,22.5
"2010-07-18 01:35:30",9346,16.01,61.83,0.542,0.17,24.17,110.9464,27.33,28.25,18.79,0,111.3,13.1,28.17,23.8
"2010-07-18 01:36:00",9347,15.95,61.75,0.452,0.104,24.24,110.9464,27.33,28.23,18.55,0,111.3,13.1,28.17,23.8
"2010-07-18 01:36:30",9348,15.82,61.07,0.455,0.151,24.21,110.9453,27.32,28.22,18.54,0,111.3,13.1,28.17,23.1
"2010-07-18 01:37:00",9349,15.66,61,0.266,0.154,24.23,110.9442,27.32,28.22,18.58,0,111.3,13.1,28.17,23.0
"2010-07-18 01:37:30",9350,15.43,60.8,0.343,0.108,24.26,110.9445,27.32,28.23,18.66,0,111.3,13.1,28.17,22.8
"2010-07-18 01:38:00",9351,15.66,60.28,0.498,0.085,24.2,110.9456,27.33,28.22,18.52,0,111.3,13.11,28.17,22.3
"2010-07-18 01:38:30",9352,15.71,60.23,0.496,0.173,24.17,110.9445,27.32,28.21,18.51,0,111.3,13.11,28.17,22.2
"2010-07-18 01:39:00",9353,15.59,59.99,0.317,0.115,24.16,110.9397,27.31,28.21,18.56,0,111.3,13.11,28.16,22.0
"2010-07-18 01:39:30",9354,15.61,59.87,0.031,0.073,24.16,110.9369,27.3,28.21,18.59,0,111.3,13.1,28.15,21.9
"2010-07-18 01:40:00",9355,15.38,59.16,0.654,0.139,24.1,110.9333,27.29,28.2,18.68,0,111.3,13.1,28.14,21.2
"2010-07-18 01:40:30",9356,15.26,59.78,0.612,0.218,24,110.9226,27.27,28.2,19.06,0,111.2,13.1,28.11,21.8
"2010-07-18 01:41:00",9357,15.14,58.52,0.716,0.168,23.97,110.9133,27.24,28.19,19.2,0,111.3,13.1,28.09,20.5
"2010-07-18 01:41:30",9358,14.98,57.82,0.942,0.271,23.96,110.9097,27.23,28.17,19.27,0,111.3,13.1,28.08,19.8
"2010-07-18 01:42:00",9359,14.84,57.37,0.756,0.136,23.96,110.8906,27.18,28.16,19.22,0,111.3,13.1,28.03,19.4
"2010-07-18 01:42:30",9360,14.9,57.79,0.92,0.18,24.04,110.8819,27.16,28.13,19.05,0,111.3,13.1,28.01,19.8
"2010-07-18 01:43:00",9361,14.8,57.65,0.617,0.143,24.05,110.8791,27.15,28.1,19.02,0,111.3,13.1,28.00,19.7
"2010-07-18 01:43:30",9362,14.51,57.79,0.742,0.149,24.03,110.8788,27.15,28.1,19.24,0,111.2,13.1,28.00,19.8
"2010-07-18 01:44:00",9363,14.04,56.89,1.053,0.209,23.89,110.8695,27.13,28.08,19.45,0,111.2,13.1,27.98,18.9
"2010-07-18 01:44:30",9364,13.75,57.16,0.61,0.145,23.88,110.8496,27.08,28.06,19.72,0,111.3,13.1,27.92,19.2
"2010-07-18 01:45:00",9365,13.83,57.39,0.702,0.202,23.92,110.8457,27.07,28.03,19.66,0,111.2,13.11,27.91,19.4
"2010-07-18 01:45:30",9366,13.47,56.48,0.656,0.163,23.88,110.8356,27.04,28.01,19.89,0,111.2,13.11,27.89,18.5
"2010-07-18 01:46:00",9367,13.23,58.67,0.99,0.292,23.92,110.8171,26.99,27.99,19.86,0,111.2,13.11,27.84,20.7
"2010-07-18 01:46:30",9368,13.52,57.91,0.699,0.187,23.93,110.8136,26.99,27.97,19.71,0,111.2,13.11,27.83,19.9
"2010-07-18 01:47:00",9369,13.51,59.44,0.997,0.27,23.96,110.8139,26.99,27.95,19.81,0,111.2,13.11,27.83,21.4
"2010-07-18 01:47:30",9370,13.09,60,0.41,0.17,23.88,110.8033,26.96,27.94,20.01,0,111.2,13.11,27.81,22.0
"2010-07-18 01:48:00",9371,13.12,60.26,0.663,0.14,23.89,110.7922,26.93,27.91,20.07,0,111.2,13.11,27.78,22.3
"2010-07-18 01:48:30",9372,13.39,60.58,0.668,0.227,23.97,110.7848,26.91,27.88,19.79,0,111.2,13.11,27.76,22.6
"2010-07-18 01:49:00",9373,13.74,60.81,0.746,0.223,23.94,110.7821,26.9,27.88,19.51,0,111.2,13.11,27.75,22.8
"2010-07-18 01:49:30",9374,13.5,60.25,1.021,0.272,23.98,110.7833,26.91,27.85,19.36,0,111.2,13.11,27.75,22.2
"2010-07-18 01:50:00",9375,13.6,61.49,0.499,0.431,23.98,110.7865,26.92,27.85,19.3,0,111.2,13.11,27.76,23.5
"2010-07-18 01:50:30",9376,13.71,61.14,0.825,0.304,23.94,110.7908,26.93,27.84,19.25,0,111.2,13.11,27.77,23.1